Location: Unspecified
(0.0000°N, 0.0000°E)
Time: 06:46:39
(UTC+02:00)

BREEZE-M DEB (TANK) - Visible Passes

Search period start: 27 July 2017 00:00
Search period end: 06 August 2017 00:00
Orbit: 329 x 16314 km, 49.4° (Epoch: 26 July)

Date Brightness Start Highest point End Pass type
(mag) Time Alt. Az. Time Alt. Az. Time Alt. Az.
27 Jul 7.4 17:32:49 10° SW 20:21:49 50° SE 20:54:28 10° ENE visible
28 Jul 7.4 01:16:15 10° WSW 01:45:00 16° WNW 01:56:04 10° NW visible
28 Jul 7.3 18:27:09 10° SSW 21:09:39 64° SE 21:35:51 10° NE visible
29 Jul 7.1 19:21:34 10° SSW 21:54:41 80° SE 22:16:16 10° NE visible
30 Jul 7.1 20:16:50 10° SSW 22:37:23 82° WNW 22:55:59 10° NNE visible
31 Jul 7.1 21:14:25 10° SW 23:18:09 62° WNW 23:35:05 10° NNE visible
01 Aug 7.2 22:16:40 10° SW 23:57:24 43° WNW 00:13:32 10° N visible
02 Aug 7.3 23:27:42 10° SW 00:35:49 27° WNW 00:50:56 10° NNW visible
04 Aug 7.6 00:53:04 10° WSW 01:14:24 13° WNW 01:24:29 10° NW visible
04 Aug 7.3 17:57:11 10° SSW 20:40:03 69° SE 21:07:00 10° NE visible
05 Aug 6.8 07:30:36 10° ENE 07:33:28 12° E 07:37:37 10° E visible
05 Aug 7.2 18:49:53 10° SSW 21:24:35 86° ESE 21:47:12 10° NE visible
